Time,TemperatureF,DewpointF,PressureIn,WindDirection,WindDirectionDegrees,WindSpeedMPH,WindSpeedGustMPH,Humidity,HourlyPrecipIn,Conditions,Clouds,dailyrainin,SoftwareType,DateUTC
2013-01-18 00:00:00,22.1,19.1,30.53,NNW,340,0.0,0.0,88,0.00,,,0.00,Wunderground v.1.15,2013-01-18 06:00:00,
2013-01-18 00:06:00,22.2,19.2,30.53,NNW,340,0.0,0.0,88,0.00,,,0.00,Wunderground v.1.15,2013-01-18 06:06:00,
2013-01-18 01:16:00,21.3,18.6,30.54,NNW,340,0.0,0.0,89,0.00,,,0.00,Wunderground v.1.15,2013-01-18 07:16:00,
2013-01-18 01:26:00,21.1,18.4,30.54,NNW,340,0.0,0.0,89,0.00,,,0.00,Wunderground v.1.15,2013-01-18 07:26:00,
2013-01-18 01:35:00,21.1,18.4,30.55,NNW,340,0.0,0.0,89,0.00,,,0.00,Wunderground v.1.15,2013-01-18 07:35:00,
2013-01-18 01:41:00,21.0,18.3,30.55,NNW,340,0.0,0.0,89,0.00,,,0.00,Wunderground v.1.15,2013-01-18 07:41:00,
2013-01-18 01:51:00,21.1,18.4,30.55,NNW,340,0.0,0.0,89,0.00,,,0.00,Wunderground v.1.15,2013-01-18 07:51:00,
2013-01-18 02:00:00,21.0,18.3,30.55,NNW,340,0.0,0.0,89,0.00,,,0.00,Wunderground v.1.15,2013-01-18 08:00:00,
2013-01-18 02:06:00,21.0,18.3,30.55,NNW,340,0.0,0.0,89,0.00,,,0.00,Wunderground v.1.15,2013-01-18 08:06:00,
2013-01-18 02:16:00,21.0,18.3,30.55,NNW,340,0.0,0.0,89,0.00,,,0.00,Wunderground v.1.15,2013-01-18 08:16:00,
2013-01-18 02:25:00,21.3,18.8,30.55,NNW,340,0.0,0.0,90,0.00,,,0.00,Wunderground v.1.15,2013-01-18 08:25:00,
2013-01-18 02:31:00,21.6,19.1,30.55,NNW,340,0.0,0.0,90,0.00,,,0.00,Wunderground v.1.15,2013-01-18 08:31:00,
2013-01-18 02:41:00,21.6,19.1,30.55,NNW,340,0.0,0.0,90,0.00,,,0.00,Wunderground v.1.15,2013-01-18 08:41:00,
2013-01-18 02:50:00,22.2,19.7,30.55,NNW,340,0.0,0.0,90,0.00,,,0.00,Wunderground v.1.15,2013-01-18 08:50:00,
2013-01-18 02:56:00,22.4,19.9,30.55,NNW,340,0.0,0.0,90,0.00,,,0.00,Wunderground v.1.15,2013-01-18 08:56:00,
2013-01-18 03:06:00,22.4,19.6,30.55,NNW,340,0.0,0.0,89,0.00,,,0.00,Wunderground v.1.15,2013-01-18 09:06:00,
2013-01-18 03:15:00,22.1,19.4,30.54,NNW,340,0.0,0.0,89,0.00,,,0.00,Wunderground v.1.15,2013-01-18 09:15:00,
2013-01-18 03:21:00,21.8,19.1,30.54,NNW,340,0.0,0.0,89,0.00,,,0.00,Wunderground v.1.15,2013-01-18 09:21:00,
2013-01-18 03:31:00,21.3,18.6,30.54,NNW,340,0.0,0.0,89,0.00,,,0.00,Wunderground v.1.15,2013-01-18 09:31:00,
2013-01-18 03:40:00,20.8,18.1,30.54,NNW,340,0.0,0.0,89,0.00,,,0.00,Wunderground v.1.15,2013-01-18 09:40:00,
2013-01-18 03:46:00,20.6,17.9,30.54,NNW,340,0.0,0.0,89,0.00,,,0.00,Wunderground v.1.15,2013-01-18 09:46:00,
2013-01-18 03:56:00,20.5,17.8,30.54,NNW,340,0.0,0.0,89,0.00,,,0.00,Wunderground v.1.15,2013-01-18 09:56:00,
2013-01-18 04:06:00,20.6,17.9,30.53,NNW,340,0.0,0.0,89,0.00,,,0.00,Wunderground v.1.15,2013-01-18 10:06:00,
2013-01-18 04:15:00,21.4,18.9,30.53,NNW,340,0.0,0.0,90,0.00,,,0.00,Wunderground v.1.15,2013-01-18 10:15:00,
2013-01-18 04:21:00,21.9,19.4,30.53,NNW,340,0.0,0.0,90,0.00,,,0.00,Wunderground v.1.15,2013-01-18 10:21:00,
2013-01-18 04:30:00,22.2,19.7,30.53,NNW,340,0.0,0.0,90,0.00,,,0.00,Wunderground v.1.15,2013-01-18 10:30:00,
2013-01-18 04:36:00,22.4,19.9,30.53,NNW,340,0.0,0.0,90,0.00,,,0.00,Wunderground v.1.15,2013-01-18 10:36:00,
2013-01-18 04:46:00,22.9,20.4,30.52,NNW,340,0.0,0.0,90,0.00,,,0.00,Wunderground v.1.15,2013-01-18 10:46:00,
2013-01-18 04:56:00,23.8,21.3,30.52,SW,236,0.0,0.0,90,0.00,,,0.00,Wunderground v.1.15,2013-01-18 10:56:00,
2013-01-18 05:06:00,24.5,21.7,30.52,SW,236,0.0,0.0,89,0.00,,,0.00,Wunderground v.1.15,2013-01-18 11:06:00,
2013-01-18 05:16:00,24.8,22.0,30.52,SW,236,0.0,0.0,89,0.00,,,0.00,Wunderground v.1.15,2013-01-18 11:16:00,
2013-01-18 05:21:00,24.8,21.8,30.52,SW,236,0.0,0.0,88,0.00,,,0.00,Wunderground v.1.15,2013-01-18 11:21:00,
2013-01-18 05:30:00,25.0,21.9,30.51,SW,227,0.0,0.0,88,0.00,,,0.00,Wunderground v.1.15,2013-01-18 11:30:00,
2013-01-18 05:36:00,24.8,21.5,30.51,SW,227,0.0,1.0,87,0.00,,,0.00,Wunderground v.1.15,2013-01-18 11:36:00,
2013-01-18 05:46:00,24.7,21.4,30.51,SW,227,0.0,0.0,87,0.00,,,0.00,Wunderground v.1.15,2013-01-18 11:46:00,
2013-01-18 05:55:00,24.8,21.5,30.51,South,186,0.0,0.0,87,0.00,,,0.00,Wunderground v.1.15,2013-01-18 11:55:00,
2013-01-18 06:01:00,24.8,21.5,30.51,South,186,0.0,0.0,87,0.00,,,0.00,Wunderground v.1.15,2013-01-18 12:01:00,
2013-01-18 06:06:00,24.7,21.4,30.51,South,186,0.0,0.0,87,0.00,,,0.00,Wunderground v.1.15,2013-01-18 12:06:00,
2013-01-18 06:16:00,24.4,21.1,30.52,South,186,0.0,0.0,87,0.00,,,0.00,Wunderground v.1.15,2013-01-18 12:16:00,
2013-01-18 06:26:00,24.7,21.4,30.52,South,186,0.0,0.0,87,0.00,,,0.00,Wunderground v.1.15,2013-01-18 12:26:00,
2013-01-18 06:36:00,24.7,21.4,30.52,South,186,0.0,0.0,87,0.00,,,0.00,Wunderground v.1.15,2013-01-18 12:36:00,
2013-01-18 06:45:00,24.8,21.5,30.52,South,186,0.0,0.0,87,0.00,,,0.00,Wunderground v.1.15,2013-01-18 12:45:00,
2013-01-18 06:51:00,24.8,21.5,30.52,South,186,0.0,0.0,87,0.00,,,0.00,Wunderground v.1.15,2013-01-18 12:51:00,
2013-01-18 07:01:00,24.7,21.1,30.52,South,186,0.0,0.0,86,0.00,,,0.00,Wunderground v.1.15,2013-01-18 13:01:00,
2013-01-18 07:06:00,24.5,20.9,30.52,South,186,0.0,0.0,86,0.00,,,0.00,Wunderground v.1.15,2013-01-18 13:06:00,
2013-01-18 07:16:00,24.7,21.4,30.52,South,186,0.0,2.0,87,0.00,,,0.00,Wunderground v.1.15,2013-01-18 13:16:00,
2013-01-18 07:26:00,24.8,21.2,30.52,South,186,0.0,0.0,86,0.00,,,0.00,Wunderground v.1.15,2013-01-18 13:26:00,
2013-01-18 07:35:00,25.3,22.0,30.51,South,186,0.0,0.0,87,0.00,,,0.00,Wunderground v.1.15,2013-01-18 13:35:00,
2013-01-18 07:41:00,25.6,22.3,30.51,South,186,0.0,2.0,87,0.00,,,0.00,Wunderground v.1.15,2013-01-18 13:41:00,
2013-01-18 07:50:00,26.0,22.4,30.51,SE,141,1.0,1.0,86,0.00,,,0.00,Wunderground v.1.15,2013-01-18 13:50:00,
2013-01-18 07:56:00,26.7,23.4,30.51,SE,141,1.0,5.0,87,0.00,,,0.00,Wunderground v.1.15,2013-01-18 13:56:00,
2013-01-18 08:06:00,27.9,24.0,30.50,SE,144,2.0,3.0,85,0.00,,,0.00,Wunderground v.1.15,2013-01-18 14:06:00,
2013-01-18 08:15:00,29.1,24.3,30.51,SSE,153,2.0,3.0,82,0.00,,,0.00,Wunderground v.1.15,2013-01-18 14:15:00,
2013-01-18 08:21:00,29.7,24.6,30.51,SSE,149,2.0,5.0,81,0.00,,,0.00,Wunderground v.1.15,2013-01-18 14:21:00,
2013-01-18 08:30:00,31.2,25.1,30.50,ESE,122,4.0,4.0,78,0.00,,,0.00,Wunderground v.1.15,2013-01-18 14:30:00,
2013-01-18 08:36:00,32.1,25.7,30.50,SSE,167,3.0,4.0,77,0.00,,,0.00,Wunderground v.1.15,2013-01-18 14:36:00,
2013-01-18 08:45:00,33.2,25.8,30.50,SSE,167,2.0,6.0,74,0.00,,,0.00,Wunderground v.1.15,2013-01-18 14:45:00,
2013-01-18 08:51:00,33.7,26.0,30.50,SSE,149,3.0,3.0,73,0.00,,,0.00,Wunderground v.1.15,2013-01-18 14:51:00,
2013-01-18 09:01:00,34.7,26.6,30.50,SE,144,3.0,3.0,72,0.00,,,0.00,Wunderground v.1.15,2013-01-18 15:01:00,
2013-01-18 09:11:00,35.9,27.1,30.50,SE,139,3.0,3.0,70,0.00,,,0.00,Wunderground v.1.15,2013-01-18 15:11:00,
2013-01-18 09:20:00,36.9,28.0,30.50,SSE,150,3.0,4.0,70,0.00,,,0.00,Wunderground v.1.15,2013-01-18 15:20:00,
2013-01-18 09:26:00,37.3,27.7,30.50,SE,144,3.0,3.0,68,0.00,,,0.00,Wunderground v.1.15,2013-01-18 15:26:00,
2013-01-18 09:35:00,38.3,27.9,30.50,SSE,151,3.0,3.0,66,0.00,,,0.00,Wunderground v.1.15,2013-01-18 15:35:00,
2013-01-18 09:41:00,39.1,28.3,30.50,South,176,3.0,3.0,65,0.00,,,0.00,Wunderground v.1.15,2013-01-18 15:41:00,
2013-01-18 09:51:00,39.6,28.0,30.50,SSE,156,4.0,4.0,63,0.00,,,0.00,Wunderground v.1.15,2013-01-18 15:51:00,
2013-01-18 10:00:00,40.6,28.6,30.50,SE,140,3.0,4.0,62,0.00,,,0.00,Wunderground v.1.15,2013-01-18 16:00:00,
2013-01-18 10:06:00,41.5,28.6,30.50,SE,134,2.0,6.0,60,0.00,,,0.00,Wunderground v.1.15,2013-01-18 16:06:00,
2013-01-18 10:16:00,42.2,28.9,30.49,SSE,163,3.0,4.0,59,0.00,,,0.00,Wunderground v.1.15,2013-01-18 16:16:00,
2013-01-18 10:26:00,42.6,28.0,30.49,South,182,4.0,5.0,56,0.00,,,0.00,Wunderground v.1.15,2013-01-18 16:26:00,
2013-01-18 10:35:00,43.9,29.2,30.48,South,188,3.0,10.0,56,0.00,,,0.00,Wunderground v.1.15,2013-01-18 16:35:00,
2013-01-18 10:41:00,44.2,28.6,30.48,South,175,3.0,11.0,54,0.00,,,0.00,Wunderground v.1.15,2013-01-18 16:41:00,
2013-01-18 10:50:00,44.2,28.1,30.48,SSE,159,5.0,5.0,53,0.00,,,0.00,Wunderground v.1.15,2013-01-18 16:50:00,
2013-01-18 10:56:00,44.5,28.4,30.48,SW,225,4.0,5.0,53,0.00,,,0.00,Wunderground v.1.15,2013-01-18 16:56:00,
2013-01-18 11:05:00,45.1,28.0,30.47,South,184,5.0,5.0,51,0.00,,,0.00,Wunderground v.1.15,2013-01-18 17:05:00,
2013-01-18 11:11:00,45.1,28.5,30.47,SW,232,5.0,5.0,52,0.00,,,0.00,Wunderground v.1.15,2013-01-18 17:11:00,
2013-01-18 11:21:00,45.8,28.7,30.45,SSW,198,4.0,4.0,51,0.00,,,0.00,Wunderground v.1.15,2013-01-18 17:21:00,
2013-01-18 11:30:00,46.4,29.7,30.44,SE,138,4.0,4.0,52,0.00,,,0.00,Wunderground v.1.15,2013-01-18 17:30:00,
2013-01-18 11:36:00,46.8,28.6,30.44,SSW,194,4.0,6.0,49,0.00,,,0.00,Wunderground v.1.15,2013-01-18 17:36:00,
2013-01-18 11:46:00,48.0,29.2,30.42,South,176,4.0,4.0,48,0.00,,,0.00,Wunderground v.1.15,2013-01-18 17:46:00,
2013-01-18 11:51:00,48.6,29.3,30.42,South,182,3.0,4.0,47,0.00,,,0.00,Wunderground v.1.15,2013-01-18 17:51:00,
2013-01-18 11:56:00,49.1,29.2,30.42,SW,228,3.0,7.0,46,0.00,,,0.00,Wunderground v.1.15,2013-01-18 17:56:00,
2013-01-18 12:06:00,49.6,28.6,30.41,South,187,3.0,3.0,44,0.00,,,0.00,Wunderground v.1.15,2013-01-18 18:06:00,
2013-01-18 12:11:00,50.1,29.6,30.41,SW,229,3.0,3.0,45,0.00,,,0.00,Wunderground v.1.15,2013-01-18 18:11:00,
2013-01-18 12:16:00,50.5,29.4,30.39,South,188,4.0,4.0,44,0.00,,,0.00,Wunderground v.1.15,2013-01-18 18:16:00,
2013-01-18 12:26:00,51.3,29.0,30.39,SSW,202,4.0,4.0,42,0.00,,,0.00,Wunderground v.1.15,2013-01-18 18:26:00,
2013-01-18 12:31:00,51.4,29.1,30.38,SSW,207,4.0,4.0,42,0.00,,,0.00,Wunderground v.1.15,2013-01-18 18:31:00,
2013-01-18 12:36:00,51.9,28.9,30.38,SSW,192,3.0,4.0,41,0.00,,,0.00,Wunderground v.1.15,2013-01-18 18:36:00,
2013-01-18 12:41:00,52.6,29.5,30.38,SW,221,3.0,9.0,41,0.00,,,0.00,Wunderground v.1.15,2013-01-18 18:41:00,
2013-01-18 12:51:00,52.9,28.0,30.36,SW,227,5.0,9.0,38,0.00,,,0.00,Wunderground v.1.15,2013-01-18 18:51:00,
2013-01-18 12:56:00,53.5,26.5,30.36,South,180,5.0,7.0,35,0.00,,,0.00,Wunderground v.1.15,2013-01-18 18:56:00,
2013-01-18 13:01:00,53.8,26.1,30.35,South,184,5.0,6.0,34,0.00,,,0.00,Wunderground v.1.15,2013-01-18 19:01:00,
2013-01-18 13:11:00,54.1,27.0,30.35,ESE,113,6.0,9.0,35,0.00,,,0.00,Wunderground v.1.15,2013-01-18 19:11:00,
2013-01-18 13:16:00,54.5,26.7,30.34,SW,223,5.0,7.0,34,0.00,,,0.00,Wunderground v.1.15,2013-01-18 19:16:00,
2013-01-18 13:21:00,54.8,26.2,30.34,West,261,5.0,11.0,33,0.00,,,0.00,Wunderground v.1.15,2013-01-18 19:21:00,
2013-01-18 13:26:00,55.3,25.9,30.34,SSW,209,5.0,5.0,32,0.00,,,0.00,Wunderground v.1.15,2013-01-18 19:26:00,
2013-01-18 13:36:00,55.9,25.7,30.34,SSW,213,4.0,7.0,31,0.00,,,0.00,Wunderground v.1.15,2013-01-18 19:36:00,
2013-01-18 13:41:00,55.7,23.9,30.34,South,178,5.0,10.0,29,0.00,,,0.00,Wunderground v.1.15,2013-01-18 19:41:00,
2013-01-18 13:46:00,55.7,25.5,30.33,WSW,239,6.0,10.0,31,0.00,,,0.00,Wunderground v.1.15,2013-01-18 19:46:00,
2013-01-18 13:51:00,55.9,24.1,30.33,WNW,302,6.0,6.0,29,0.00,,,0.00,Wunderground v.1.15,2013-01-18 19:51:00,
2013-01-18 13:56:00,56.3,23.6,30.33,SSW,193,5.0,6.0,28,0.00,,,0.00,Wunderground v.1.15,2013-01-18 19:56:00,
2013-01-18 14:06:00,56.5,22.9,30.32,WSW,248,5.0,11.0,27,0.00,,,0.00,Wunderground v.1.15,2013-01-18 20:06:00,
2013-01-18 14:11:00,56.5,22.9,30.32,SSW,201,6.0,7.0,27,0.00,,,0.00,Wunderground v.1.15,2013-01-18 20:11:00,
2013-01-18 14:21:00,57.0,24.2,30.31,SW,223,4.0,7.0,28,0.00,,,0.00,Wunderground v.1.15,2013-01-18 20:21:00,
2013-01-18 14:26:00,57.0,24.2,30.31,SSW,200,5.0,5.0,28,0.00,,,0.00,Wunderground v.1.15,2013-01-18 20:26:00,
2013-01-18 14:31:00,57.3,23.6,30.31,SSW,199,4.0,6.0,27,0.00,,,0.00,Wunderground v.1.15,2013-01-18 20:31:00,
2013-01-18 14:41:00,57.6,23.8,30.31,SW,215,5.0,5.0,27,0.00,,,0.00,Wunderground v.1.15,2013-01-18 20:41:00,
2013-01-18 14:46:00,57.2,23.5,30.30,SSW,201,6.0,6.0,27,0.00,,,0.00,Wunderground v.1.15,2013-01-18 20:46:00,
2013-01-18 14:51:00,57.5,24.6,30.30,WSW,239,5.0,6.0,28,0.00,,,0.00,Wunderground v.1.15,2013-01-18 20:51:00,
2013-01-18 15:01:00,57.2,23.5,30.29,SW,217,5.0,5.0,27,0.00,,,0.00,Wunderground v.1.15,2013-01-18 21:01:00,
2013-01-18 15:06:00,57.0,23.3,30.29,SSW,194,4.0,7.0,27,0.00,,,0.00,Wunderground v.1.15,2013-01-18 21:06:00,
2013-01-18 15:11:00,57.0,23.3,30.29,South,172,4.0,6.0,27,0.00,,,0.00,Wunderground v.1.15,2013-01-18 21:11:00,
2013-01-18 15:21:00,57.2,23.5,30.29,WSW,247,4.0,6.0,27,0.00,,,0.00,Wunderground v.1.15,2013-01-18 21:21:00,
2013-01-18 15:26:00,57.5,23.7,30.29,SW,226,3.0,4.0,27,0.00,,,0.00,Wunderground v.1.15,2013-01-18 21:26:00,
2013-01-18 15:31:00,57.5,23.7,30.29,WSW,246,3.0,6.0,27,0.00,,,0.00,Wunderground v.1.15,2013-01-18 21:31:00,
2013-01-18 15:41:00,57.8,20.2,30.29,SSW,203,4.0,6.0,23,0.00,,,0.00,Wunderground v.1.15,2013-01-18 21:41:00,
2013-01-18 15:46:00,57.8,21.2,30.29,SSE,157,6.0,6.0,24,0.00,,,0.00,Wunderground v.1.15,2013-01-18 21:46:00,
2013-01-18 15:56:00,57.5,19.9,30.29,WSW,242,4.0,4.0,23,0.00,,,0.00,Wunderground v.1.15,2013-01-18 21:56:00,
2013-01-18 16:01:00,57.2,19.7,30.28,SSW,196,4.0,5.0,23,0.00,,,0.00,Wunderground v.1.15,2013-01-18 22:01:00,
2013-01-18 16:06:00,57.0,21.5,30.28,SW,230,4.0,5.0,25,0.00,,,0.00,Wunderground v.1.15,2013-01-18 22:06:00,
2013-01-18 16:16:00,56.6,20.2,30.27,SW,217,3.0,4.0,24,0.00,,,0.00,Wunderground v.1.15,2013-01-18 22:16:00,
2013-01-18 16:21:00,56.3,19.9,30.27,SW,222,3.0,4.0,24,0.00,,,0.00,Wunderground v.1.15,2013-01-18 22:21:00,
2013-01-18 16:26:00,55.9,20.5,30.27,SSW,199,4.0,4.0,25,0.00,,,0.00,Wunderground v.1.15,2013-01-18 22:26:00,
2013-01-18 16:31:00,55.6,19.3,30.27,SSW,206,4.0,4.0,24,0.00,,,0.00,Wunderground v.1.15,2013-01-18 22:31:00,
2013-01-18 16:41:00,54.7,19.5,30.27,SW,214,3.0,4.0,25,0.00,,,0.00,Wunderground v.1.15,2013-01-18 22:41:00,
2013-01-18 16:46:00,54.5,19.3,30.27,SW,225,3.0,6.0,25,0.00,,,0.00,Wunderground v.1.15,2013-01-18 22:46:00,
2013-01-18 16:51:00,54.4,19.3,30.27,SW,226,3.0,6.0,25,0.00,,,0.00,Wunderground v.1.15,2013-01-18 22:51:00,
2013-01-18 16:56:00,53.9,18.8,30.27,South,169,2.0,2.0,25,0.00,,,0.00,Wunderground v.1.15,2013-01-18 22:56:00,
2013-01-18 17:06:00,52.9,19.8,30.26,SE,146,2.0,5.0,27,0.00,,,0.00,Wunderground v.1.15,2013-01-18 23:06:00,
2013-01-18 17:11:00,52.8,19.7,30.26,SSW,198,2.0,2.0,27,0.00,,,0.00,Wunderground v.1.15,2013-01-18 23:11:00,
2013-01-18 17:16:00,52.0,19.9,30.27,SSW,198,1.0,2.0,28,0.00,,,0.00,Wunderground v.1.15,2013-01-18 23:16:00,
2013-01-18 17:21:00,50.7,22.6,30.27,SSW,198,0.0,0.0,33,0.00,,,0.00,Wunderground v.1.15,2013-01-18 23:21:00,
2013-01-18 17:31:00,46.8,22.5,30.27,West,269,0.0,0.0,38,0.00,,,0.00,Wunderground v.1.15,2013-01-18 23:31:00,
2013-01-18 17:36:00,45.8,23.4,30.27,West,269,0.0,0.0,41,0.00,,,0.00,Wunderground v.1.15,2013-01-18 23:36:00,
2013-01-18 17:41:00,44.5,23.9,30.27,West,269,0.0,0.0,44,0.00,,,0.00,Wunderground v.1.15,2013-01-18 23:41:00,
2013-01-18 17:51:00,43.2,23.3,30.27,SE,145,0.0,0.0,45,0.00,,,0.00,Wunderground v.1.15,2013-01-18 23:51:00,
2013-01-18 17:56:00,43.1,23.7,30.27,SE,146,0.0,0.0,46,0.00,,,0.00,Wunderground v.1.15,2013-01-18 23:56:00,
2013-01-18 18:01:00,42.9,23.5,30.27,SE,146,0.0,0.0,46,0.00,,,0.00,Wunderground v.1.15,2013-01-19 00:01:00,
2013-01-18 18:11:00,42.6,22.7,30.27,SE,146,0.0,0.0,45,0.00,,,0.00,Wunderground v.1.15,2013-01-19 00:11:00,
2013-01-18 18:16:00,42.9,22.5,30.27,SE,146,0.0,1.0,44,0.00,,,0.00,Wunderground v.1.15,2013-01-19 00:16:00,
2013-01-18 18:21:00,43.3,22.8,30.27,South,179,0.0,1.0,44,0.00,,,0.00,Wunderground v.1.15,2013-01-19 00:21:00,
2013-01-18 18:26:00,43.3,22.3,30.27,South,179,0.0,0.0,43,0.00,,,0.00,Wunderground v.1.15,2013-01-19 00:26:00,
2013-01-18 18:36:00,43.3,22.3,30.27,South,186,0.0,1.0,43,0.00,,,0.00,Wunderground v.1.15,2013-01-19 00:36:00,
2013-01-18 18:41:00,43.3,21.7,30.27,SSE,149,0.0,5.0,42,0.00,,,0.00,Wunderground v.1.15,2013-01-19 00:41:00,
2013-01-18 18:46:00,43.2,22.2,30.27,South,190,1.0,5.0,43,0.00,,,0.00,Wunderground v.1.15,2013-01-19 00:46:00,
2013-01-18 18:51:00,43.2,22.2,30.27,SSW,193,1.0,1.0,43,0.00,,,0.00,Wunderground v.1.15,2013-01-19 00:51:00,
2013-01-18 19:01:00,44.5,22.2,30.27,SSE,160,1.0,1.0,41,0.00,,,0.00,Wunderground v.1.15,2013-01-19 01:01:00,
2013-01-18 19:10:00,45.8,21.6,30.27,South,170,2.0,2.0,38,0.00,,,0.00,Wunderground v.1.15,2013-01-19 01:10:00,
2013-01-18 19:16:00,46.4,21.5,30.25,South,171,2.0,2.0,37,0.00,,,0.00,Wunderground v.1.15,2013-01-19 01:16:00,
2013-01-18 19:21:00,46.4,22.1,30.25,SSW,200,2.0,2.0,38,0.00,,,0.00,Wunderground v.1.15,2013-01-19 01:21:00,
2013-01-18 19:26:00,46.0,23.0,30.25,South,185,1.0,2.0,40,0.00,,,0.00,Wunderground v.1.15,2013-01-19 01:26:00,
2013-01-18 19:36:00,44.5,22.2,30.25,SSE,151,1.0,4.0,41,0.00,,,0.00,Wunderground v.1.15,2013-01-19 01:36:00,
2013-01-18 19:41:00,44.1,23.0,30.25,SSE,157,1.0,1.0,43,0.00,,,0.00,Wunderground v.1.15,2013-01-19 01:41:00,
2013-01-18 19:46:00,43.6,23.1,30.25,South,181,1.0,1.0,44,0.00,,,0.00,Wunderground v.1.15,2013-01-19 01:46:00,
2013-01-18 19:56:00,43.3,23.4,30.25,SSE,167,0.0,4.0,45,0.00,,,0.00,Wunderground v.1.15,2013-01-19 01:56:00,
2013-01-18 20:01:00,43.2,22.7,30.25,SE,130,1.0,2.0,44,0.00,,,0.00,Wunderground v.1.15,2013-01-19 02:01:00,
2013-01-18 20:06:00,43.1,22.6,30.25,South,179,1.0,2.0,44,0.00,,,0.00,Wunderground v.1.15,2013-01-19 02:06:00,
2013-01-18 20:16:00,43.5,23.5,30.24,South,171,1.0,4.0,45,0.00,,,0.00,Wunderground v.1.15,2013-01-19 02:16:00,
2013-01-18 20:21:00,43.8,24.3,30.24,SSW,201,2.0,2.0,46,0.00,,,0.00,Wunderground v.1.15,2013-01-19 02:21:00,
2013-01-18 20:31:00,43.5,25.1,30.24,SSW,212,2.0,2.0,48,0.00,,,0.00,Wunderground v.1.15,2013-01-19 02:31:00,
2013-01-18 20:36:00,43.3,25.4,30.24,SSE,155,2.0,3.0,49,0.00,,,0.00,Wunderground v.1.15,2013-01-19 02:36:00,
2013-01-18 20:51:00,43.1,25.7,30.24,SSW,202,2.0,3.0,50,0.00,,,0.00,Wunderground v.1.15,2013-01-19 02:51:00,
2013-01-18 21:01:00,42.8,25.9,30.23,SSE,165,1.0,1.0,51,0.00,,,0.00,Wunderground v.1.15,2013-01-19 03:01:00,
2013-01-18 21:06:00,42.8,25.9,30.23,South,190,1.0,1.0,51,0.00,,,0.00,Wunderground v.1.15,2013-01-19 03:06:00,
2013-01-18 21:11:00,42.5,26.1,30.23,SE,131,1.0,1.0,52,0.00,,,0.00,Wunderground v.1.15,2013-01-19 03:11:00,
2013-01-18 21:21:00,41.5,26.1,30.23,South,186,0.0,1.0,54,0.00,,,0.00,Wunderground v.1.15,2013-01-19 03:21:00,
2013-01-18 21:26:00,40.6,26.1,30.23,South,188,0.0,0.0,56,0.00,,,0.00,Wunderground v.1.15,2013-01-19 03:26:00,
2013-01-18 21:31:00,40.1,26.1,30.23,South,188,0.0,0.0,57,0.00,,,0.00,Wunderground v.1.15,2013-01-19 03:31:00,
2013-01-18 21:41:00,39.6,26.0,30.23,SSE,164,0.0,4.0,58,0.00,,,0.00,Wunderground v.1.15,2013-01-19 03:41:00,
2013-01-18 21:46:00,39.5,26.3,30.23,SSE,163,1.0,1.0,59,0.00,,,0.00,Wunderground v.1.15,2013-01-19 03:46:00,
2013-01-18 21:51:00,39.5,26.3,30.23,SSE,163,0.0,1.0,59,0.00,,,0.00,Wunderground v.1.15,2013-01-19 03:51:00,
2013-01-18 22:01:00,39.1,26.0,30.23,SSE,152,1.0,1.0,59,0.00,,,0.00,Wunderground v.1.15,2013-01-19 04:01:00,
2013-01-18 22:06:00,39.2,25.6,30.23,SSE,163,1.0,1.0,58,0.00,,,0.00,Wunderground v.1.15,2013-01-19 04:06:00,
2013-01-18 22:11:00,39.2,25.6,30.23,SSE,166,1.0,1.0,58,0.00,,,0.00,Wunderground v.1.15,2013-01-19 04:11:00,
2013-01-18 22:16:00,39.2,25.6,30.22,SSE,161,1.0,1.0,58,0.00,,,0.00,Wunderground v.1.15,2013-01-19 04:16:00,
2013-01-18 22:26:00,39.1,25.6,30.22,South,190,1.0,2.0,58,0.00,,,0.00,Wunderground v.1.15,2013-01-19 04:26:00,
2013-01-18 22:31:00,39.1,25.6,30.22,SE,144,1.0,1.0,58,0.00,,,0.00,Wunderground v.1.15,2013-01-19 04:31:00,
2013-01-18 22:36:00,38.8,25.3,30.22,SSW,211,1.0,2.0,58,0.00,,,0.00,Wunderground v.1.15,2013-01-19 04:36:00,
2013-01-18 22:46:00,38.5,25.4,30.22,SE,139,0.0,1.0,59,0.00,,,0.00,Wunderground v.1.15,2013-01-19 04:46:00,
2013-01-18 22:51:00,38.3,25.6,30.22,South,184,1.0,1.0,60,0.00,,,0.00,Wunderground v.1.15,2013-01-19 04:51:00,
2013-01-18 22:56:00,38.2,25.5,30.22,SE,130,1.0,1.0,60,0.00,,,0.00,Wunderground v.1.15,2013-01-19 04:56:00,
2013-01-18 23:06:00,38.5,25.8,30.21,SSW,195,0.0,1.0,60,0.00,,,0.00,Wunderground v.1.15,2013-01-19 05:06:00,
2013-01-18 23:11:00,38.5,25.4,30.21,SSW,195,0.0,0.0,59,0.00,,,0.00,Wunderground v.1.15,2013-01-19 05:11:00,
2013-01-18 23:16:00,38.2,25.9,30.20,SSE,155,0.0,0.0,61,0.00,,,0.00,Wunderground v.1.15,2013-01-19 05:16:00,
2013-01-18 23:26:00,38.3,26.0,30.20,SE,131,1.0,1.0,61,0.00,,,0.00,Wunderground v.1.15,2013-01-19 05:26:00,
2013-01-18 23:31:00,38.2,25.9,30.20,SE,131,0.0,0.0,61,0.00,,,0.00,Wunderground v.1.15,2013-01-19 05:31:00,
2013-01-18 23:36:00,37.6,25.7,30.20,SE,131,0.0,0.0,62,0.00,,,0.00,Wunderground v.1.15,2013-01-19 05:36:00,
2013-01-18 23:41:00,36.9,25.9,30.20,SE,131,0.0,0.0,64,0.00,,,0.00,Wunderground v.1.15,2013-01-19 05:41:00,
2013-01-18 23:51:00,35.9,25.6,30.20,SE,131,0.0,0.0,66,0.00,,,0.00,Wunderground v.1.15,2013-01-19 05:51:00,
2013-01-18 23:56:00,35.8,25.5,30.20,SE,131,0.0,0.0,66,0.00,,,0.00,Wunderground v.1.15,2013-01-19 05:56:00,